Погода в Мончегорске

Хотите узнать прогноз погоды в Мончегорске? Тогда Вам сюда: Погода в Мончегорске

Поиск расширенной информации на нашем сайте:

Полезная информация:

Новости сайта



02.01.2020
Опубликован Долгосрочный прогноз погоды по городам России и ближнего зарубежья на январь 2020 года.
Карты: Прогноз на январь и февраль 2020 года, Сравнение прогнозируемой аномалии приземной температуры воздуха на январь 2020 года по разным моделям.




Погода в Мончегорске - сегодня

Время (UTC), дата Ветер
(°,м/с) 
Видим.   Явления Облачность Т
(°С)
Тd
(°С)
f(%) Тe
(°С)
Pmin
(гПа)
dP
(гПа)
Po
(мм)
O2
(г/м3)
Тmin Tmax R s Состояние
почвы
12 29.11.20 160 (Ю) 4-13{20}  10 км  позёмок{ливн. осадки}  6/4 600 м кучево-дожд., верхняя 
[Cb cap|Ci fib]
-3 -4.7 88 -6  1025.6  -0.9  757  309           
15 29.11.20 180 (Ю) 5-11{13}  10 км  позёмок  8/0 верхняя 
[Cs]
-3 -4.5 89 -7  1024.8  -0.8  756  308      0.7     
18 29.11.20 200 (Ю) 7-15{17}  10 км  позёмок  9/0 верхняя 
[Cc]
-3.1 -4.4 91 -8  1023.6  -1.2  755  308    -2.6  0.4     
21 29.11.20 190 (Ю) 6-11{17}  4000 м  слаб. ливневой снег  10/8 300 м кучево-дожд., средняя 
[Cb cap|Ac und]
-2.7 -4.1 90 -7  1023.6  755  308           
00 30.11.20 200 (Ю) 8-15{18}  4000 м  слаб. ливневой снег  10/10 300 м кучево-дожд. 
[Cb cap]
-2.5 -3.5 93 -7  1021.9  -1.6  754  307           
03 30.11.20 190 (Ю) 4-9{19}  10 км  позёмок{ливн. осадки}  10/10 300 м кучево-дожд. 
[Cb cap]
-1.8 -3.7 87 -5  1021.9  754  306  -3.2    0.4     
06 30.11.20 190 (Ю) 2-6{12}  4000 м  слаб. ливневой снег  10/10 300 м кучево-дожд. 
[Cb cap]
-2 -3.1 92 -3  1020.7  -1.2  753  306  -3.1    0.4  23  равномерный
сухой снег
100% 
09 30.11.20 180 (Ю) 5-12{14}  10 км  позёмок{ливн. осадки}  10/10 300 м кучево-дожд. 
[Cb cap]
-2.8 -3.9 92 -6  1019.9  -0.8  752  307           
12 30.11.20 190 (Ю) 4-9{14}  10 км  {ливн. осадки, морось}  10/10 300 м 
[St]
-3 -4.4 90 -6  1018.5  -1.4  751  307           
15 30.11.20 190 (Ю) 5-12{14}  10 км    10/10 300 м 
[St]
-3.1 -4.8 88 -7  1016.9  -1.6  750  306      0.1     
18 30.11.20 190 (Ю) 5-11{14}  10 км  позёмок{ливн. осадки}  9/9 300 м кучево-дожд. 
[Cb cap]
-3.2 -4.6 90 -7  1015  -1.8  749  306    -2  0.1     
21 30.11.20 190 (Ю) 5-11{13}  10 км  слаб. ливневой снег  10/10 300 м кучево-дожд. 
[Cb cap]
-2.8 -3.9 92 -6  1013.1  -1.9  747  305           
00 01.12.20 200 (Ю) 5-10{13}  4000 м  слаб. ливневой снег  10/10 200 м кучево-дожд. 
[Cb cap]
-2.2 -3.2 93 -6  1011.5  -1.5  746  303           
03 01.12.20 190 (Ю) 3-8{10}  4000 м  слаб. ливневой снег  10/10 200 м кучево-дожд. 
[Cb cap]
-1.4 -2.4 93 -3  1010.8  -0.7  746  302  -3.2    0.3     
06 01.12.20 190 (Ю) 4-7{10}  4000 м  слаб. ливневой снег  10/10 300 м кучево-дожд. 
[Cb cap]
-1 -2 93 -4  1009.3  -1.4  745  301  -3.2    0.5  22  равномерный
сухой снег
100% 
09 01.12.20 180 (Ю) 4-9{11}  4000 м  слаб. ливневой снег  9/8 600 м кучево-дожд., средняя 
[Cb cap|Ac trans]
-0.5 -2.1 89 -3  1008.3  -1  744  300           
12 01.12.20 200 (Ю) 4-10{11}  4000 м  слаб. ливневой снег  10/10 600 м кучево-дожд. 
[Cb cap]
-0.4 -2.1 88 -3  1008.4  0.1  744  300           
15 01.12.20 180 (Ю) 4-8{12}  4000 м  слаб. ливневой снег  10/10 300 м кучево-дожд. 
[Cb cap]
-0.6 -2.5 87 -3  1009.2  0.8  745  301      0.8     
21 01.12.20 300 (СЗ) 1-1  10 км  в посл. час ливневой снег  9/9 600 м кучево-дожд. 
[Cb cap]
-1.6 -2.6 93 -1  1014.7  3.1  749  304           
00 02.12.20 340 (С) 1-2  10 км  {ливн. осадки}  9/6 600 м кучево-дожд., средняя 
[Cb cap|Ac trans]
-3.3 -3.7 97 -3  1017.7  2.8  751  307           
03 02.12.20 230 (ЮЗ) 1-2  4000 м  дымка [диам. изморози 1 мм]  4/4 300 м 
[St]
-5.5 -5.7 98 -5  1019.4  1.5  752  310  -6.7    0.4     
06 02.12.20 тихо () -1  0500 м  переохл. туман  ясно 
-10.9 -11.8 93 -11  1020.2  0.5  752  317  -10.9    0.2  23  равномерный
сухой снег
100% 
09 02.12.20 170 (Ю) 2-5  4000 м  дымка{туман}  9/3 600 м средняя, верхняя 
[Sc|Ac trans|Ci fib]
-5.3 -5.9 96 -7  1019.2  -0.6  752  310           
12 02.12.20 190 (Ю) 6-13{13}  20000 м  позёмок{туман}  9/4 600 м средняя, верхняя 
[Sc|Ac trans|Ci fib]
-2.5 -4.3 87 -6  1017.5  -1.5  751  306           
15 02.12.20 160 (Ю) 5-10{14}  10 км  позёмок  10/10 600 м 
[Sc]
-2.8 -5.5 82 -6  1017.2  -0.4  750  306           
Время (UTC), дата Ветер
(°,м/с) 
Видим.   Явления Облачность Т
(°С)
Тd
(°С)
f(%) Тe
(°С)
Pmin
(гПа)
dP
(гПа)
Po
(мм)
O2
(г/м3)
Тmin Tmax R s Состояние
почвы

Для получения пояснительной информации подведите курсор к названию столбца.

ПОГОДА в Мончегорске - архив

Всё, что Вы хотите узнать о погоде в Мончегорске - удобно и подробно!

Выберите нужную дату (начиная с 1 января 2019* года) и нажмите кнопку "Найти".
Будут отображены архивные сводки погоды по пункту Мончегорск, начиная с указанной даты.


Отображать данные в формате CSV (для использования в таблицах Excel)


Внимание! Наш архив погоды предназначен исключительно для личного некоммерческого использования в познавательных целях. Если Вам необходимы официальные справки о состоянии погоды (для производственных, юридических, коммерческих и т.п. целей), обращайтесь в органы Росгидромета.

*Примечание: данная дата относится к архиву по метеостанциям СССР (Россия, СНГ, Балтия).
Архив по метеостанциям Зарубежной Европы и Азии (кроме Китая) хранится 10 дней, по другим регионам земного шара (Китай, Африка, Америка, Австралия, Океания) - 1 день.

Мончегорск - район местоположения метеостанции


Название, широта, долгота, высота метеостанции:
Мончегорск 68°ш. 32.9°д. 132 м над ур. моря [Российская Федерация]

Дополнительная информация

В oтличие oт бoльшинства пoгoдных сайтoв мы публикуем пoдрoбную метеoинфoрмацию в детальнoм прoфессиoнальнoм фoрмате.

Характеристики температуры и влажнoсти вoздуха измеряются на высoте 2 м в тени вдали oт зданий и деревьев.
Скoрoсть ветра измеряется на высoте 10 м (на урoвне рoста челoвека скoрoсть ветра ниже в 1.5-2 раза). Если метеoстанция нахoдится в гoрoде или в лесу, тo скoрoсть ветра занижена на 2-4 м/с пo сравнению с oткрытым местoм. Скoрoсть ветра над акватoриями крупных рек и oзёр, а также на вершинах хoлмoв на 2-5 м/с выше, чем в oбычных услoвиях.
Атмoсфернoе давление в разных тoчках местнoсти мoжет значительнo oтличаться oт давления на метеoстанции, в зависимoсти oт услoвий рельефа (при пoдъёме на 10 м давление пoнижается примернo на 1 мм рт.ст.).